Flag for France Weather past 2 weeks in Marseille, France

Now
72 °F

Sunny.


Feels Like: 75 °F
Forecast: 60 / 76 °F
Wind: 5 mph from Northwest

Location: Marseille / Marignane

Current Time: Aug 20, 2014 at 9:32:22 PM

Latest Report: Aug 20, 2014 at 9:00 PM


Visibility: 10 mi

Pressure: 29.95 "Hg

Humidity: 69%

Dew point: 61 °F

Location of MarseilleLocation

Historic Weather in Marseille — Graph

°F

Marseille temperature yesterday

Maximum temperature yesterday: 81 °F (at 3:30 PM)
Minimum temperature yesterday: 68 °F (at 2:00 AM)
Average temperature yesterday: 74 °F

Past Weeks' High & Low Weather Summary

 TemperatureHumidityPressure
High90 °F (Aug 10, 1:00 PM)94% (Aug 19, 2:00 AM)30.07 "Hg (Aug 19, 2:00 AM)
Low55 °F (Aug 17, 7:00 AM)29% (Aug 6, 6:30 PM)29.71 "Hg (Aug 13, 7:30 AM)
Average74 °F59%29.94 "Hg
* Reported Aug 5 8:00 PM — Aug 20 8:30 PM, Marseille, Weather by CustomWeather, © 2014

Note: Actual official high and low records may vary slightly from our data, if they occured in-between our weather recording intervals... More about our weather records

Advertising

Marseille weather history for previous 24 hours

 ConditionsComfort  
Time TempWeatherWind HumidityBarometerVisibility
8:30 PM
Aug 20
72 °FSunny.6 mph69%29.95 "Hg10 mi
8:00 PM73 °FSunny.10 mph65%29.95 "Hg10 mi
7:30 PM75 °FSunny.10 mph57%29.95 "Hg10 mi
7:00 PM75 °FSunny.16 mph54%29.95 "Hg10 mi
6:30 PM75 °FSunny.20 mph54%29.95 "Hg10 mi
6:00 PM75 °FSunny.20 mph54%29.95 "Hg10 mi
5:30 PM77 °FSunny.20 mph47%29.95 "Hg10 mi
5:00 PM75 °FScattered clouds.21 mph47%29.95 "HgN/A
4:30 PM77 °FScattered clouds.16 mph47%29.95 "HgN/A
4:00 PM73 °FPartly sunny.16 mph50%29.95 "HgN/A
3:30 PM75 °FSunny.18 mph50%29.95 "Hg10 mi
3:00 PM79 °FSunny.13 mph42%29.95 "Hg10 mi
2:30 PM77 °FSunny.12 mph44%29.95 "Hg10 mi
2:00 PM77 °FPassing clouds.8 mph47%29.95 "HgN/A
1:30 PM77 °FSunny.13 mph44%29.95 "Hg10 mi
1:00 PM75 °FPassing clouds.12 mph50%29.92 "HgN/A
12:30 PM75 °FSunny.14 mph50%29.95 "Hg10 mi
12:00 PM73 °FSunny.10 mph53%29.95 "Hg10 mi
11:30 AM73 °FSunny.No wind53%29.98 "Hg10 mi
11:00 AM72 °FSunny.8 mph57%29.95 "Hg10 mi
10:30 AM70 °FPassing clouds.7 mph57%29.95 "HgN/A
10:00 AM68 °FPassing clouds.3 mph64%29.95 "HgN/A
9:30 AM68 °FSunny.3 mph64%29.95 "Hg10 mi
9:00 AM68 °FSunny.3 mph64%29.95 "Hg10 mi
8:30 AM66 °FSunny.3 mph68%29.95 "Hg10 mi
8:00 AM66 °FSunny.5 mph68%29.92 "Hg10 mi
7:30 AM64 °FPassing clouds.5 mph73%29.92 "HgN/A
7:00 AM66 °FClear.6 mph73%29.92 "Hg10 mi
6:30 AM64 °FClear.5 mph78%29.92 "Hg10 mi
6:00 AM66 °FClear.6 mph78%29.92 "Hg10 mi
5:30 AM66 °FClear.9 mph78%29.92 "Hg10 mi
5:00 AM66 °FClear.7 mph83%29.92 "Hg10 mi
4:30 AM66 °FClear.5 mph88%29.92 "Hg10 mi
4:00 AM64 °FClear.5 mph83%29.92 "HgN/A
3:30 AM64 °FClear.No wind83%29.92 "HgN/A
3:00 AM64 °FClear.3 mph83%29.92 "HgN/A
2:30 AM66 °FClear.3 mph78%29.92 "HgN/A
2:00 AM68 °FClear.5 mph73%29.92 "HgN/A
1:30 AM68 °FClear.7 mph73%29.92 "HgN/A
1:00 AM70 °FClear.7 mph69%29.92 "Hg10 mi
12:30 AM70 °FClear.9 mph73%29.92 "Hg10 mi
12:00 AM70 °FClear.8 mph73%29.92 "Hg10 mi
11:30 PM
Aug 19
70 °FClear.6 mph73%29.92 "Hg10 mi
10:30 PM72 °FPassing clouds.6 mph69%29.92 "HgN/A
10:00 PM72 °FClear.7 mph69%29.92 "Hg10 mi
9:30 PM73 °FPassing clouds.8 mph69%29.92 "HgN/A
9:00 PM73 °FSunny.9 mph69%29.89 "Hg10 mi
Weather by CustomWeather, © 2014

See weather overviewHow to use our weather pages